Terminal Aerodrome Forecast
Issued by NWS

Home | Current Version | Previous Version | Text Only | Print | Product List | Glossary Off
Versions: 1 2 3 4 5 6 7 8 9 10 11 12 13 14 15 16 17 18 19 20 21 22 23 24 25 26 27 28 29 30 31 32 33 34 35 36 37 38 39 40 41 42 43 44 45 46 47 48

775
FTUS43 KGRB 201256 AAB
TAFRHI
TAF AMD
KRHI 201256Z 2013/2112 14010G14KT P6SM BKN009 WS020/20040KT
      TEMPO 2013/2015 1SM +TSRA BR SCT009 BKN035CB
     FM201500 15010G16KT P6SM BKN025
     FM201800 17010G16KT P6SM SCT015 BKN070
     FM201900 18009KT P6SM VCTS BKN015CB
     FM210200 32004KT P6SM SCT012 BKN035
     FM210600 34004KT 5SM BR BKN010
     FM210800 04004KT 2SM BR BKN006=

USA.gov is the U.S. government's official web portal to all federal, state and local government web resources and services.